TIME,DELAY(SENSOR),PRES,T(CTD),SAL,OXYGEN,RAWTEMP,T(OPTODE),TCPHASE,FLUOR,BETA(BETA700),BETA(BETA412),BETA(BETA440),CDOM,C(CSC),ED(ED412.40),ED(ED444.00),ED(ED489.70),ED(ED554.30),LU(LU411.80),LU(LU443.40),LU(LU489.60),LU(LU554.10),COMP,TILTX,TILTX(TILTY),CHECK
1362606628,5807,497.6600036621094000,6.9597997665405270,34.1048011779785160,96.5805130004882800,588.5532836914062000,6.9534168243408200,46.8782691955566400,51,105,85,78,77,14847,2147747702,2147422336,2148005129,2147873590,2147626541,2147075648,2148240493,2147196982,1779,4,13,62156
1362606758,5808,487.0100097656250000,7.2228999137878420,34.1083984375000000,100.6187973022461000,580.8779296875000000,7.2002677917480470,46.3291206359863300,51,103,88,80,78,14845,2147746358,2147425517,2148005632,2147871442,2147626349,2147072667,2148237851,2147203547,1514,4,13,61223
1362606909,5809,475.5799865722656000,7.3888001441955570,34.1105003356933600,103.5338973999023400,575.7252197265625000,7.3656849861145020,45.9420509338378900,51,102,83,79,77,14851,2147745536,2147422939,2148003858,2147872182,2147625033,2147077056,2148241078,2147203099,301,4,13,43238
1362607059,5811,463.3500061035156000,7.5434999465942380,34.1040992736816400,106.3053970336914000,570.7728881835938000,7.5244407653808590,45.5784683227539060,52,103,88,79,76,14849,2147745051,2147427154,2148004132,2147874733,2147623725,2147084507,2148237705,2147199588,340,4,13,29123
1362607174,5810,452.7600097656250000,7.6859002113342285,34.0880012512207000,113.7033004760742200,566.3065795898438000,7.6674389839172360,44.7631797790527340,51,103,87,80,76,14849,2147745106,2147422326,2148002468,2147876571,2147622610,2147084233,2148234614,2147197705,443,4,12,28341
1362607303,5806,441.4299926757812500,7.8850998878479000,34.0882987976074200,121.4278030395507800,560.0825805664062000,7.8664212226867680,43.9163818359375000,50,106,91,80,76,14847,2147746688,2147424877,2148000685,2147874130,2147624228,2147083702,2148235785,2147199094,159,4,13,24303
1362607430,5806,430.8299865722656000,8.1154003143310550,34.0903015136718750,130.5095062255859400,552.4758300781250000,8.1091642379760740,42.9486198425293000,50,102,90,80,76,14849,2147742838,2147424649,2148005824,2147873709,2147623433,2147085394,2148232502,2147203035,3578,4,13,26456
1362607569,5810,419.1000061035156000,8.4819002151489260,34.0895996093750000,141.4284057617187500,541.1677856445312000,8.4691314697265620,41.7996406555175800,50,105,90,81,74,14849,2147744713,2147423424,2148002797,2147873206,2147620708,2147088950,2148231716,2147200932,1085,4,13,37201
1362607699,5808,408.4100036621094000,8.8304996490478520,34.0885009765625000,152.9402008056640600,529.2576293945312000,8.8471660614013670,40.6441802978515600,50,105,88,80,73,14847,2147741906,2147422080,2148004425,2147873261,2147617645,2147090413,2148232000,2147200905,3226,3,13,19883
1362607838,5808,397.1600036621094000,9.1946001052856450,34.0937995910644500,165.9570007324218800,518.8795776367188000,9.1756744384765620,39.4596481323242200,50,105,88,79,72,14846,2147740288,2147422445,2148002816,2147874029,2147613083,2147087478,2148224064,2147204214,1895,3,14,34021
1362607979,5808,386.6199951171875000,9.4242000579833980,34.1012992858886700,173.8038940429687500,510.9353942871094000,9.4265956878662110,38.7513504028320300,50,103,86,80,73,14847,2147740114,2147422098,2148004973,2147874971,2147613028,2147095606,2148223533,2147199323,1469,3,13,31573
1362608130,5808,376.0799865722656000,9.7398004531860350,34.1057014465332000,180.7418975830078000,501.0808105468750000,9.7372245788574220,38.0963516235351560,50,103,88,80,72,14844,2147736868,2147423149,2148004205,2147873179,2147612077,2147093988,2148227419,2147204114,1314,4,13,49720
1362608303,5806,362.5700073242187500,10.2122001647949220,34.1170005798339840,193.2794036865234400,486.4559936523437500,10.1969804763793950,37.0177917480468750,49,105,87,79,70,14846,2147733330,2147423570,2148005504,2147871643,2147606793,2147094610,2148219282,2147207149,1361,3,14,47865
1362608406,5805,352.5499877929687500,10.5565004348754880,34.1278991699218750,197.2342987060547000,474.8198852539062500,10.5617599487304690,36.5728607177734400,49,105,89,80,71,14846,2147734089,2147424329,2148007990,2147872987,2147610422,2147098770,2148224228,2147205001,1893,3,13,2714
1362608535,5809,340.4599914550781000,10.9505996704101560,34.1473007202148440,202.0375976562500000,463.3861999511719000,10.9193696975708000,36.0871696472168000,48,105,86,80,70,14846,2147731922,2147427190,2148010176,2147874020,2147605202,2147102756,2148222473,2147204187,1068,4,14,62854
1362608662,5808,329.4500122070312500,11.3632001876831050,34.1622009277343750,204.3569946289062500,448.0679016113281000,11.3972396850585940,35.6967811584472660,49,104,91,80,69,14844,2147731008,2147426916,2148007744,2147872530,2147603026,2147106998,2148215222,2147205010,1613,4,14,42665
1362608801,5812,318.3900146484375000,11.8329000473022460,34.1898002624511700,208.2234954833984400,434.0365905761719000,11.8338098526000980,35.2418098449707000,48,104,86,78,70,14845,2147730304,2147430857,2148011090,2147872374,2147599963,2147110244,2148212004,2147204736,1246,4,13,26245
1362608943,5808,307.3999938964844000,12.3024997711181640,34.2146987915039060,211.8668975830078000,419.0304870605469000,12.2995595932006840,34.7918395996093750,49,103,85,80,68,14844,2147726400,2147431058,2148025051,2147872694,2147597312,2147119753,2148221065,2147206555,1174,3,14,29600
1362609082,5807,296.7099914550781000,12.7925996780395500,34.2449989318847660,214.2653961181640600,403.4212036132812500,12.7828702926635740,34.4112396240234400,49,106,86,80,69,14846,2147725202,2147433408,2148023360,2147873673,2147593627,2147125760,2148215259,2147205412,738,4,14,5596
1362609231,5810,283.5799865722656000,13.4804000854492190,34.2901000976562500,215.2897033691406200,379.2073974609375000,13.5304803848266600,33.9803886413574200,48,103,88,80,66,14843,2147723355,2147445156,2148061595,2147872713,2147594185,2147134409,2148235008,2147206784,300,3,14,19792
1362609334,5810,273.5599975585937500,14.1162996292114260,34.3259010314941400,216.2745056152343800,359.8782043457031000,14.1256399154663090,33.6325492858886700,47,101,85,80,67,14844,2147723757,2147436388,2148027245,2147872630,2147588333,2147137161,2148212653,2147204900,3553,4,14,51284
1362609463,5808,262.0199890136719000,15.3006000518798830,34.4500007629394500,215.9467010498047000,322.2987976074219000,15.2793102264404300,33.0928001403808600,48,102,88,79,67,14841,2147718528,2147446866,2148049764,2147869933,2147587556,2147142610,2148218313,2147210038,701,3,14,65499
1362609590,5808,252.0000000000000000,16.2773990631103500,34.5764007568359400,214.9674072265625000,290.2023925781250000,16.2619304656982420,32.6812286376953100,47,102,86,80,66,14839,2147719853,2147459108,2148074413,2147873124,2147583286,2147165001,2148225581,2147210861,292,3,15,6492
1362609741,5807,240.6300048828125000,17.2789001464843750,34.6848983764648440,214.3558959960937500,257.4090881347656000,17.2642307281494140,32.2481803894043000,48,103,87,82,66,14833,2147722176,2147480283,2148120274,2147871451,2147578240,2147186002,2148242578,2147215762,3518,3,14,9974
1362609877,5813,228.0899963378906200,17.8922004699707030,34.7747993469238300,214.9174957275390600,237.1484069824218800,17.8830394744873050,31.9341392517089840,49,103,85,80,65,14830,2147720576,2147481481,2148107876,2147870006,2147576493,2147193408,2148232676,2147212891,96,3,14,45936
1362609980,5806,217.3500061035156200,18.4193000793457030,34.8540992736816400,216.2019958496093800,219.6692962646484400,18.4168205261230470,31.6231994628906250,50,102,87,80,64,14829,2147726829,2147495049,2148127789,2147869494,2147573440,2147204699,2148241270,2147214354,2757,2,14,55648
1362610095,5810,206.0200042724609400,19.1746997833251950,34.9570007324218750,216.1161956787109400,195.4835052490234400,19.1555690765380860,31.2970008850097660,51,105,85,81,63,14825,2147734098,2147533522,2148188452,2147873426,2147577444,2147229001,2148267821,2147220918,2406,3,15,22830
1362610194,5808,198.0800018310547000,19.2796001434326170,34.9786987304687500,217.4235992431640600,191.2207031250000000,19.2858104705810550,31.1704196929931640,52,105,88,79,63,14818,2147747081,2147559597,2148228489,2147868443,2147578733,2147255222,2148286564,2147222253,2861,3,14,17637
1362610249,5806,194.1999969482422000,19.4318008422851560,34.9976997375488300,217.1777038574218800,185.5032043457031200,19.4605407714843750,31.1056404113769530,51,107,85,81,63,14819,2147757814,2147589165,2148272045,2147871872,2147586102,2147276662,2148310226,2147225545,3276,2,15,1078
1362610316,5809,189.9499969482422000,19.6958999633789060,35.0326004028320300,217.3784027099609400,177.2619934082031200,19.7124500274658200,30.9842700958251950,54,111,87,81,64,14808,2147802770,2147708854,2148485714,2147874852,2147605430,2147347382,2148410980,2147231222,2810,2,15,36941
1362610383,5805,186.1000061035156200,20.1867008209228500,35.0886001586914060,216.4418029785156200,161.4687042236328000,20.1954803466796880,30.8216800689697270,65,110,87,81,64,14808,2147921069,2148041334,2149088594,2147873490,2147654070,2147555154,2148724123,2147252882,1984,2,15,21090
1362610450,5810,182.5500030517578000,20.3941993713378900,35.1153984069824200,216.4777984619140600,154.9066009521484400,20.3962993621826170,30.7325096130371100,69,115,91,82,63,14797,2147867126,2147845046,2148686180,2147875520,2147629622,2147436525,2148511286,2147240740,1233,2,15,10265
1362610529,5807,178.4900054931640600,20.5685005187988280,35.1329002380371100,216.6777954101562500,149.6188964843750000,20.5581893920898440,30.6516895294189450,76,119,89,83,63,14793,2147942966,2148007469,2148938962,2147873353,2147662144,2147527113,2148640192,2147247579,1007,2,15,42044
1362610620,5809,174.3399963378906200,20.7679004669189450,35.1542015075683600,216.6885070800781200,144.4051971435547000,20.7178497314453120,30.5819206237792970,81,120,90,81,63,14784,2148035291,2148171821,2149182509,2147881563,2147701184,2147620352,2148739035,2147262217,948,2,15,18102
1362610699,5807,170.3600006103515600,20.8607006072998050,35.1627006530761700,217.0063018798828000,139.8235931396484400,20.8582191467285160,30.5046806335449220,83,120,88,80,62,14775,2147969728,2147982262,2148842852,2147875428,2147668178,2147499913,2148569892,2147244425,1324,2,16,7563
1362610778,5809,166.0200042724609400,21.0002994537353500,35.1757011413574200,217.4559020996093800,135.5892944335937500,20.9879798889160160,30.4254207611084000,92,118,90,82,62,14773,2148000018,2148000329,2148835309,2147876278,2147682880,2147510217,2148552886,2147243474,1382,2,16,60556
1362610848,5805,162.2500000000000000,21.0508995056152340,35.1804008483886700,217.8491058349609400,133.7684936523437500,21.0438003540039060,30.3811893463134770,95,119,89,83,64,14773,2148028406,2148018587,2148834843,2147875510,2147688137,2147507666,2148547209,2147246208,902,2,15,8537
1362610915,5809,158.6499938964843800,21.1154003143310550,35.1773986816406250,217.9261932373047000,131.6125946044922000,21.1098899841308600,30.3486309051513670,99,120,92,82,62,14768,2148053750,2148034422,2148837586,2147874925,2147700370,2147510272,2148546294,2147245888,482,2,15,47065
1362610994,5806,154.6799926757812500,21.4022998809814450,35.1940002441406250,217.7852935791015600,124.4092025756836000,21.3308200836181640,30.2612590789794920,105,120,89,82,62,14756,2148097152,2148071826,2148858953,2147877147,2147713307,2147524818,2148546020,2147244992,808,2,15,31998
1362611085,5808,150.8399963378906200,21.5671997070312500,35.2116012573242200,219.7604064941406200,117.3861007690429700,21.5463600158691400,30.0682792663574220,115,121,87,84,62,14748,2148168393,2148146413,2148936850,2147877129,2147739318,2147552502,2148573696,2147246381,1276,2,16,16906
1362611191,5807,147.0000000000000000,21.6098995208740230,35.2156982421875000,221.5993041992187500,115.6567001342773400,21.5994491577148440,29.9527702331542970,118,123,89,82,63,14739,2148320804,2148344987,2149169974,2147878144,2147795629,2147647040,2148664301,2147256475,1587,2,16,51005
1362611318,5811,142.9100036621093800,21.7301998138427730,35.2181015014648440,222.5516052246093800,111.8510971069336000,21.7163200378417970,29.8554191589355470,124,123,89,83,63,14732,2148605933,2148699245,2149586221,2147882569,2147900178,2147804681,2148827986,2147273700,1859,2,16,55491
1362611465,5810,138.9499969482422000,21.8813991546630860,35.2182998657226560,223.8392028808593800,106.9882965087890600,21.8657207489013670,29.7282104492187500,126,123,93,84,62,14724,2149403629,2149741476,2150881088,2147889563,2148194880,2148266953,2149345892,2147316507,1965,2,16,53091
1362611580,5806,135.1999969482422000,22.2308006286621100,35.2248992919921900,225.0988006591797000,95.4091262817382800,22.2217807769775400,29.5167198181152340,131,123,89,83,61,14719,2151246637,2152127259,2153817252,2147913517,2148868726,2149306066,2150504996,2147418477,1061,1,16,33526
1362611779,5807,130.8200073242187500,22.4883995056152340,35.2387008666992200,229.0973052978515600,86.8683166503906200,22.4846992492675780,29.2129402160644530,144,127,91,83,61,14699,2150878564,2151266697,2152362267,2147901933,2148704731,2148850294,2149870729,2147366098,3469,2,16,44862
1362611882,5810,126.9199981689453100,22.8574008941650400,35.2612991333007800,230.8984069824218800,75.4616699218750000,22.8362598419189450,28.9818000793457030,139,121,93,84,59,14700,2151595382,2151930459,2152894290,2147907702,2148983625,2149116388,2150069284,2147392448,3537,1,16,64192
1362612009,5807,122.9400024414062500,23.1469001770019530,35.2906990051269500,232.2406005859375000,65.8178863525390600,23.1338901519775400,28.7965793609619140,125,120,92,82,60,14711,2153708370,2154192969,2155157595,2147933293,2149833837,2150111442,2150978121,2147481974,2369,2,16,24333
1362612123,5808,118.6600036621093800,23.3957996368408200,35.3079986572265600,234.1566009521484400,57.8211517333984400,23.3809890747070300,28.6062507629394530,102,117,89,83,59,14721,2161219044,2162747949,2164195392,2148025545,2153112594,2154091291,2154776868,2147839762,2252,1,16,41951
1362612214,5806,114.7799987792968800,23.6877002716064450,35.3266983032226560,235.1611022949218800,48.6610488891601560,23.6643791198730470,28.4448699951171880,93,117,87,83,59,14725,2155176603,2155249234,2155567579,2147943003,2150903360,2150969718,2151444077,2147531693,1714,2,16,38009
1362612329,5808,110.8700027465820300,23.8057003021240230,35.3395996093750000,236.9414978027343800,44.3186988830566400,23.7988491058349600,28.3092308044433600,84,119,89,83,59,14724,2154045860,2153733037,2153718217,2147928987,2150707995,2150479250,2150792228,2147471725,1543,2,16,47141
1362612432,5808,106.3700027465820300,23.9123992919921880,35.3510017395019500,237.9808959960937500,40.4011192321777340,23.9202499389648440,28.2130699157714840,78,118,87,83,56,14728,2155338816,2154910710,2154621394,2147947401,2151922459,2151509970,2151445942,2147528219,1741,1,16,35846
1362612511,5818,102.0599975585937500,24.0520000457763670,35.3652000427246100,238.5113067626953000,36.4711494445800800,24.0421104431152340,28.1402397155761720,73,119,92,84,57,14724,2157457645,2157011117,2156468973,2147985846,2153874157,2153307785,2152689225,2147641746,1798,1,16,48007
1362612578,5807,98.5500030517578100,24.0639991760253900,35.3679008483886700,239.2985992431640600,35.9491195678710940,24.0583000183105470,28.0982799530029300,71,118,91,84,56,14724,2176317293,2178512603,2178548032,2148400365,2167414921,2167742994,2164392868,2148683364,1473,2,16,29233
1362612633,5808,95.6299972534179700,24.0804996490478500,35.3695983886718750,239.5458984375000000,35.4121398925781250,24.0749607086181640,28.0804405212402340,68,119,90,83,58,14720,2188897078,2192468342,2192642761,2148728164,2178357696,2178969846,2173038985,2149438976,1314,1,16,47773
1362612691,5806,92.4400024414062500,24.0828990936279300,35.3700981140136700,239.7568969726562500,35.2630500793457000,24.0795803070068360,28.0691699981689450,63,117,90,85,57,14720,2181395465,2183191899,2182445860,2148571830,2175515812,2175254262,2169435565,2149083757,1054,1,16,61259
1362612746,5808,89.3300018310546900,24.0837001800537100,35.3706016540527340,239.8981018066406200,35.1839790344238300,24.0820407867431640,28.0618305206298830,64,119,90,83,59,14712,2197469622,2201217197,2201176640,2149141522,2189777846,2189805622,2180495168,2150050102,731,1,16,50386
1362612801,5808,86.3799972534179700,24.0855007171630860,35.3714981079101560,240.0285949707031200,35.0718612670898440,24.0855102539062500,28.0545597076416000,64,118,94,84,56,14714,2202764544,2206951926,2207090916,2149431378,2195868041,2195689746,2184496685,2150390948,418,1,16,21560
1362612856,5807,83.4100036621093800,24.0860004425048830,35.3708000183105500,240.0755004882812500,35.0595588684082000,24.0858993530273440,28.0523490905761720,63,118,91,85,55,14716,2205985472,2210094262,2210002651,2149727926,2201909714,2201320493,2188249892,2150712694,344,1,16,31881
1362612911,5809,80.4300003051757800,24.0865993499755860,35.3712005615234400,240.1981964111328000,35.0082283020019500,24.0874900817871100,28.0461997985839840,63,118,90,83,59,14712,2212024630,2216572781,2216540708,2150144091,2209496521,2208529225,2193169581,2151133522,479,2,16,50118
1362612966,5806,77.4700012207031200,24.0862007141113280,35.3712997436523440,240.3424072265625000,35.0243606567382800,24.0869903564453120,28.0399608612060550,62,119,93,84,58,14709,2216571154,2221310811,2221417078,2150625389,2215845897,2214542555,2197136000,2151509997,537,1,16,47283
1362613024,5809,74.3700027465820300,24.0863990783691400,35.3712005615234400,240.4217071533203000,35.0172805786132800,24.0872097015380860,28.0362491607666000,63,117,90,83,56,14712,2223943716,2229384795,2229744118,2151354093,2224905161,2223215186,2203121691,2152099309,557,2,16,37633
1362613079,5809,71.4199981689453100,24.0872993469238280,35.3703002929687500,240.5092926025390600,35.0120582580566400,24.0873699188232420,28.0321807861328120,60,119,93,83,60,14705,2225423826,2230385152,2230562605,2151872667,2227422427,2225022957,2203868214,2152231222,521,1,16,44475
1362613134,5810,68.3799972534179700,24.0860996246337900,35.3707008361816400,240.5350036621093800,35.0257301330566400,24.0869407653808600,28.0313491821289060,61,117,91,83,54,14702,2223889819,2228172534,2227989824,2152142208,2229950537,2227054893,2204938230,2152339035,309,1,16,20308
1362613189,5809,65.4199981689453100,24.0855007171630860,35.3708000183105500,240.5668945312500000,35.0402908325195300,24.0864906311035160,28.0300693511962900,59,119,93,84,56,14705,2184603675,2182978258,2179623058,2149456886,2190891867,2185625417,2173010377,2149432374,77,2,16,10167
1362613244,5805,62.5200004577636700,24.0846004486084000,35.3708992004394500,240.6710968017578000,35.1211318969726560,24.0839900970459000,28.0265293121337900,57,118,89,85,57,14711,2185977709,2184396361,2181278445,2149820736,2193220416,2187951497,2174687186,2149623771,3555,1,16,35948
1362613299,5810,59.6899986267089840,24.0855998992919920,35.3708000183105500,240.8374023437500000,34.9809799194335940,24.0883293151855470,28.0172290802001950,59,118,91,85,57,14705,2247246144,2253478134,2254754294,2156174326,2253342491,2248697225,2219724781,2154302262,93,1,16,9197
1362613357,5808,56.7200012207031250,24.0853996276855470,35.3709983825683600,240.8630065917968800,34.9521713256835940,24.0892295837402340,28.0157108306884770,59,118,91,84,58,14706,2261354752,2267790564,2268892928,2158556681,2274953252,2269576210,2234416100,2155928896,272,1,16,44688
1362613412,5808,54.0600013732910160,24.0862998962402340,35.3708000183105500,240.9273986816406200,34.8786010742187500,24.0915107727050780,28.0120105743408200,57,120,92,83,58,14701,2272077376,2279632192,2281336182,2160552448,2283887698,2277737289,2239900836,2156719634,21,2,16,22491
1362613467,5810,51.4399986267089840,24.0865001678466800,35.3706016540527340,241.0410003662109400,34.8481216430664060,24.0924491882324220,28.0064697265625000,56,119,92,84,56,14705,2278300772,2285948452,2288330267,2163431424,2295417124,2288328292,2247357531,2157734153,3381,1,17,20327
1362613522,5809,48.8300018310546900,24.0858001708984380,35.3706016540527340,241.1737976074218800,34.8189086914062500,24.0933609008789060,28.0003604888916000,56,118,91,84,57,14705,2287425892,2295635236,2298640832,2166924397,2303461293,2295447286,2251776009,2158663780,3426,1,16,32397
1362613577,5806,46.1599998474121100,24.0853004455566400,35.3708000183105500,241.1578063964843800,34.7970695495605500,24.0940399169921880,28.0007801055908200,56,116,92,83,57,14700,2292747456,2300277284,2303290486,2170277467,2316329536,2307115492,2259765778,2160146194,3463,2,16,56948
1362613632,5807,43.4599990844726560,24.0881996154785160,35.3703002929687500,241.1894989013672000,34.7378692626953100,24.0958805084228500,27.9986000061035160,56,119,93,84,59,14704,2305046400,2312773330,2316023844,2174215908,2330865837,2320666148,2269000539,2161639972,3344,2,16,57082
1362613690,5809,40.5699996948242200,24.0877990722656250,35.3706016540527340,241.2433013916015600,34.6803398132324200,24.0976600646972660,27.9953804016113280,56,117,89,84,58,14698,2312310253,2318816082,2320911771,2178320429,2348300918,2336615021,2280065718,2163609142,3291,1,16,62228
1362613745,5809,37.7999992370605500,24.0888996124267580,35.3700981140136700,241.2779998779297000,34.6125793457031250,24.0997600555419920,27.9930000305175780,54,117,90,83,60,14708,2330793993,2339272539,2343850770,2187737142,2365196745,2351878528,2290725750,2166347684,3236,1,17,46630
1362613800,5808,34.9099998474121100,24.0893001556396500,35.3707008361816400,241.3535003662109400,34.5035095214843750,24.1031494140625000,27.9883308410644530,53,117,88,84,53,14702,2352882075,2363354806,2370626249,2197444397,2387133366,2372832411,2305420315,2169476544,3277,1,17,49493
1362613855,5805,31.8700008392334000,24.0918006896972660,35.3706016540527340,241.4080047607422000,34.5023307800293000,24.1031799316406250,27.9859409332275400,53,117,91,81,56,14704,2338931264,2345701037,2350112164,2198683291,2380152283,2364096475,2298126674,2169177060,3266,1,16,56162
1362613910,5806,28.7800006866455080,24.0923995971679700,35.3702011108398440,241.4925994873047000,34.4976997375488300,24.1033306121826170,27.9820098876953120,54,117,90,84,58,14703,2333817252,2338559652,2341509321,2201273188,2370426797,2351440548,2287742710,2169723428,3315,2,17,25461
1362613965,5809,25.6000003814697270,24.0916004180908200,35.3707008361816400,241.4698944091797000,34.5437316894531250,24.1019001007080080,27.9836101531982420,52,117,87,84,55,14706,2332694226,2336536932,2339690898,2208671616,2370108635,2350090459,2286550180,2171053156,3294,1,16,26702
1362614023,5809,22.2500000000000000,24.0942993164062500,35.3704986572265600,241.5361022949218800,34.4532508850097660,24.1047096252441400,27.9796504974365230,53,117,90,84,57,14706,2390987446,2400056850,2409794742,2249689417,2434739419,2411061211,2330044306,2182004571,3415,1,16,52998
